Location: Sungai Liu
(2.3667°N, 113.8667°E)
Time: 13:39:52
(UTC+00:00)

Cosmos 1959 Rocket - Pass Details

Date: 20 May 2022
Orbit: 946 x 998 km, 83.0° (Epoch: 04 July)

Event Time Altitude Azimuth Distance (km) Brightness Sun altitude
Rises 20:40:19 0° 358° (N) 3,648 7.8 -22.7°
Reaches altitude 10° 20:42:49 10° 360° (N) 2,696 7.1 -22.1°
Maximum altitude 20:48:59 82° 86° (E) 969 4.5 -20.7°
Drops below altitude 10° 20:55:06 10° 174° (S) 2,674 6.6 -19.3°
Sets 20:57:35 0° 175° (S) 3,617 7.3 -18.7°
